When you browse on this site, cookies collect data to enhance your experience and personalize the content and advertising you see.
Visit our Privacy Policy to learn more. By continuing to use the site, you agree to this use of cookies and data.
  • In Hungary
  • List of Countries
  • For 7 days
  • Water Temperature
  • Satellite Maps
  • Weather Map
  • News
  • Weather Widgets
  • user-avatar
    Login

    Hourly Weather Jalalabad

    Today, 23 April, Tuesday

    Time Temperature Precipitation Wind Pressure Humidity
    00:00 +28°C° 0 mm 2 mps 709 mmHg 33%
    01:00 +27°C° 0 mm 1 mps 709 mmHg 34%
    02:00 +26°C° 0 mm 1 mps 709 mmHg 35%
    03:00 +26°C° 0 mm 1 mps 709 mmHg 35%
    04:00 +25°C° 0 mm 1 mps 709 mmHg 36%
    05:00 +25°C° 0 mm 1 mps 708 mmHg 39%
    06:00 +26°C° 0 mm 1 mps 708 mmHg 35%
    07:00 +27°C° 0 mm 1 mps 709 mmHg 30%
    08:00 +29°C° 0 mm 1 mps 709 mmHg 26%
    09:00 +30°C° 0 mm 1 mps 709 mmHg 25%
    10:00 +31°C° 0 mm 1 mps 709 mmHg 24%
    11:00 +32°C° 0 mm 2 mps 709 mmHg 23%
    12:00 +34°C° 0 mm 2 mps 709 mmHg 22%
    13:00 +34°C° 0 mm 3 mps 709 mmHg 21%
    14:00 +34°C° 0 mm 3 mps 709 mmHg 20%
    15:00 +34°C° 0.3 mm 3 mps 709 mmHg 21%
    16:00 +32°C° 0.3 mm 2 mps 709 mmHg 22%
    17:00 +31°C° 0 mm 2 mps 709 mmHg 24%
    18:00 +30°C° 0.2 mm 2 mps 709 mmHg 28%
    19:00 +30°C° 0.2 mm 1 mps 709 mmHg 32%
    20:00 +29°C° 0.2 mm 1 mps 710 mmHg 36%
    21:00 +28°C° 0.1 mm 1 mps 710 mmHg 37%
    22:00 +28°C° 0.1 mm 2 mps 710 mmHg 38%
    23:00 +27°C° 0.1 mm 2 mps 710 mmHg 40%

    Tomorrow, 24 April, Wednesday

    Time Temperature Precipitation Wind Pressure Humidity
    00:00 +27°C° 0.1 mm 2 mps 710 mmHg 41%
    01:00 +26°C° 0.1 mm 2 mps 710 mmHg 42%
    02:00 +26°C° 0.1 mm 2 mps 709 mmHg 42%
    03:00 +26°C° 0.1 mm 2 mps 709 mmHg 43%
    04:00 +25°C° 0.1 mm 2 mps 709 mmHg 43%
    05:00 +25°C° 0.1 mm 2 mps 709 mmHg 43%
    06:00 +26°C° 0.1 mm 2 mps 710 mmHg 41%
    07:00 +26°C° 0.1 mm 2 mps 710 mmHg 38%
    08:00 +27°C° 0.1 mm 3 mps 710 mmHg 36%
    09:00 +28°C° 0.1 mm 3 mps 710 mmHg 35%
    10:00 +29°C° 0.1 mm 3 mps 710 mmHg 33%
    11:00 +30°C° 0.1 mm 4 mps 710 mmHg 32%
    12:00 +32°C° 0 mm 4 mps 710 mmHg 32%
    13:00 +33°C° 0 mm 5 mps 709 mmHg 32%
    14:00 +33°C° 0 mm 6 mps 709 mmHg 32%
    15:00 +33°C° 0 mm 6 mps 708 mmHg 33%
    16:00 +33°C° 0 mm 6 mps 708 mmHg 33%
    17:00 +33°C° 0 mm 6 mps 708 mmHg 34%
    18:00 +32°C° 0.2 mm 6 mps 708 mmHg 38%
    19:00 +30°C° 0.2 mm 5 mps 708 mmHg 41%
    20:00 +29°C° 0.2 mm 4 mps 709 mmHg 45%
    21:00 +28°C° 0.2 mm 4 mps 709 mmHg 47%
    22:00 +27°C° 0.2 mm 3 mps 709 mmHg 49%
    23:00 +26°C° 0.2 mm 2 mps 709 mmHg 51%

    Day after tomorrow, 25 April, Thursday

    Time Temperature Precipitation Wind Pressure Humidity
    00:00 +26°C° 0 mm 2 mps 709 mmHg 52%
    01:00 +25°C° 0 mm 2 mps 709 mmHg 53%
    02:00 +25°C° 0 mm 2 mps 709 mmHg 54%
    03:00 +24°C° 0.2 mm 2 mps 709 mmHg 55%
    04:00 +24°C° 0.2 mm 2 mps 709 mmHg 56%
    05:00 +23°C° 0.2 mm 2 mps 709 mmHg 57%
    06:00 +24°C° 0.2 mm 2 mps 709 mmHg 54%
    07:00 +25°C° 0.2 mm 2 mps 710 mmHg 52%
    08:00 +26°C° 0.2 mm 2 mps 710 mmHg 49%
    09:00 +27°C° 0.1 mm 2 mps 710 mmHg 46%
    10:00 +28°C° 0.1 mm 2 mps 711 mmHg 43%
    11:00 +29°C° 0.1 mm 2 mps 711 mmHg 40%
    12:00 +30°C° 0 mm 3 mps 710 mmHg 35%
    13:00 +32°C° 0 mm 4 mps 710 mmHg 31%
    14:00 +33°C° 0 mm 4 mps 710 mmHg 27%
    15:00 +33°C° 0 mm 4 mps 709 mmHg 27%
    16:00 +33°C° 0 mm 4 mps 709 mmHg 27%
    17:00 +33°C° 0 mm 4 mps 709 mmHg 27%
    18:00 +31°C° 0 mm 3 mps 709 mmHg 30%
    19:00 +30°C° 0 mm 2 mps 709 mmHg 33%
    20:00 +29°C° 0 mm 2 mps 710 mmHg 36%
    21:00 +28°C° 0 mm 2 mps 710 mmHg 36%
    22:00 +27°C° 0 mm 2 mps 710 mmHg 36%
    23:00 +27°C° 0 mm 2 mps 710 mmHg 37%

    26 April, Friday

    Time Temperature Precipitation Wind Pressure Humidity
    00:00 +26°C° 0 mm 2 mps 710 mmHg 37%
    01:00 +25°C° 0 mm 2 mps 710 mmHg 37%
    02:00 +25°C° 0 mm 2 mps 710 mmHg 37%
    03:00 +24°C° 0 mm 2 mps 710 mmHg 37%
    04:00 +24°C° 0 mm 2 mps 709 mmHg 37%
    05:00 +23°C° 0 mm 2 mps 709 mmHg 36%
    06:00 +24°C° 0 mm 2 mps 710 mmHg 33%
    07:00 +25°C° 0 mm 1 mps 710 mmHg 30%
    08:00 +26°C° 0 mm 1 mps 710 mmHg 26%
    09:00 +27°C° 0 mm 2 mps 711 mmHg 27%
    10:00 +28°C° 0 mm 2 mps 711 mmHg 27%
    11:00 +29°C° 0 mm 2 mps 711 mmHg 27%
    12:00 +30°C° 0 mm 2 mps 711 mmHg 26%
    13:00 +31°C° 0 mm 2 mps 710 mmHg 24%
    14:00 +32°C° 0 mm 2 mps 710 mmHg 23%
    15:00 +32°C° 0 mm 2 mps 710 mmHg 22%
    16:00 +32°C° 0 mm 2 mps 709 mmHg 21%
    17:00 +32°C° 0 mm 2 mps 709 mmHg 20%
    18:00 +31°C° 0 mm 2 mps 709 mmHg 23%
    19:00 +30°C° 0 mm 2 mps 710 mmHg 26%
    20:00 +29°C° 0 mm 2 mps 710 mmHg 29%
    21:00 +28°C° 0 mm 2 mps 710 mmHg 29%
    22:00 +28°C° 0 mm 2 mps 711 mmHg 29%
    23:00 +27°C° 0 mm 2 mps 711 mmHg 30%

    27 April, Saturday

    Time Temperature Precipitation Wind Pressure Humidity
    00:00 +26°C° 0 mm 2 mps 711 mmHg 30%
    01:00 +26°C° 0 mm 2 mps 710 mmHg 30%
    02:00 +25°C° 0 mm 2 mps 710 mmHg 30%
    03:00 +25°C° 0 mm 2 mps 710 mmHg 29%
    04:00 +24°C° 0 mm 2 mps 710 mmHg 29%
    05:00 +24°C° 0 mm 2 mps 710 mmHg 29%
    06:00 +25°C° 0 mm 2 mps 710 mmHg 26%
    07:00 +26°C° 0 mm 2 mps 710 mmHg 24%
    08:00 +27°C° 0 mm 2 mps 711 mmHg 22%
    09:00 +28°C° 0 mm 3 mps 711 mmHg 22%
    10:00 +29°C° 0 mm 3 mps 711 mmHg 22%
    11:00 +31°C° 0 mm 3 mps 711 mmHg 21%
    12:00 +31°C° 0 mm 3 mps 710 mmHg 19%
    13:00 +33°C° 0 mm 3 mps 710 mmHg 17%
    14:00 +34°C° 0 mm 3 mps 709 mmHg 15%
    15:00 +34°C° 0 mm 2 mps 709 mmHg 14%
    16:00 +34°C° 0 mm 2 mps 709 mmHg 14%
    17:00 +34°C° 0 mm 2 mps 709 mmHg 13%
    18:00 +32°C° 0 mm 2 mps 709 mmHg 15%
    19:00 +31°C° 0 mm 2 mps 709 mmHg 17%
    20:00 +29°C° 0 mm 2 mps 709 mmHg 18%
    21:00 +29°C° 0 mm 2 mps 710 mmHg 19%
    22:00 +28°C° 0 mm 2 mps 710 mmHg 20%
    23:00 +27°C° 0 mm 2 mps 710 mmHg 20%

    28 April, Sunday

    Time Temperature Precipitation Wind Pressure Humidity
    00:00 +27°C° 0 mm 2 mps 710 mmHg 22%
    01:00 +26°C° 0 mm 2 mps 709 mmHg 23%
    02:00 +25°C° 0 mm 2 mps 709 mmHg 24%
    03:00 +25°C° 0 mm 2 mps 709 mmHg 24%
    04:00 +24°C° 0 mm 2 mps 709 mmHg 25%
    05:00 +23°C° 0 mm 2 mps 709 mmHg 25%
    06:00 +25°C° 0 mm 2 mps 709 mmHg 23%
    07:00 +26°C° 0 mm 2 mps 709 mmHg 21%
    08:00 +27°C° 0 mm 2 mps 710 mmHg 19%
    09:00 +28°C° 0 mm 2 mps 710 mmHg 17%
    10:00 +29°C° 0 mm 2 mps 710 mmHg 16%
    11:00 +30°C° 0 mm 2 mps 710 mmHg 15%
    12:00 +31°C° 0 mm 2 mps 709 mmHg 13%
    13:00 +32°C° 0 mm 2 mps 709 mmHg 12%
    14:00 +34°C° 0 mm 2 mps 708 mmHg 11%
    15:00 +34°C° 0 mm 2 mps 708 mmHg 11%
    16:00 +34°C° 0 mm 2 mps 708 mmHg 11%
    17:00 +34°C° 0 mm 2 mps 708 mmHg 11%
    18:00 +32°C° 0 mm 2 mps 708 mmHg 14%
    19:00 +30°C° 0 mm 1 mps 708 mmHg 16%
    20:00 +29°C° 0 mm 1 mps 708 mmHg 19%
    21:00 +29°C° 0 mm 1 mps 709 mmHg 19%
    22:00 +28°C° 0 mm 1 mps 709 mmHg 18%
    23:00 +28°C° 0 mm 1 mps 709 mmHg 18%
    Show more